Year,Month,Day,Hour,Minute,Value (Times are PST for windgust in km/hr)
2017,05,14,00,46,3.20
2017,05,14,00,47,1.60
2017,05,14,00,52,3.20
2017,05,14,00,53,3.20
2017,05,14,00,54,4.80
2017,05,14,00,55,1.60
2017,05,14,00,56,3.20
2017,05,14,00,57,3.20
2017,05,14,00,58,3.20
2017,05,14,01,03,1.60
2017,05,14,01,09,1.60
2017,05,14,01,12,3.20
2017,05,14,01,13,1.60
2017,05,14,01,14,1.60
2017,05,14,01,15,1.60
2017,05,14,01,16,1.60
2017,05,14,01,17,1.60
2017,05,14,01,18,1.60
2017,05,14,01,19,3.20
2017,05,14,01,25,4.80
2017,05,14,01,26,1.60
2017,05,14,01,33,1.60
2017,05,14,01,34,1.60
2017,05,14,01,35,3.20
2017,05,14,01,40,3.20
2017,05,14,01,41,3.20
2017,05,14,01,43,1.60
2017,05,14,01,44,1.60
2017,05,14,01,47,1.60
2017,05,14,01,49,1.60
2017,05,14,01,58,1.60
2017,05,14,02,00,3.20
2017,05,14,02,01,3.20
2017,05,14,02,02,1.60
2017,05,14,02,03,1.60
2017,05,14,02,04,1.60
2017,05,14,02,05,1.60
2017,05,14,02,12,3.20
2017,05,14,03,21,3.20
2017,05,14,03,22,1.60
2017,05,14,03,23,1.60
2017,05,14,03,36,1.60
2017,05,14,07,39,1.60
2017,05,14,07,45,1.60
2017,05,14,07,46,1.60
2017,05,14,07,47,1.60
2017,05,14,07,57,1.60
2017,05,14,07,58,1.60
2017,05,14,08,00,1.60
2017,05,14,08,01,4.80
2017,05,14,08,02,1.60
2017,05,14,08,03,1.60
2017,05,14,08,04,1.60
2017,05,14,08,26,1.60
2017,05,14,08,27,3.20
2017,05,14,08,29,1.60
2017,05,14,08,30,3.20
2017,05,14,08,31,1.60
2017,05,14,08,34,1.60
2017,05,14,08,36,1.60
2017,05,14,08,39,1.60
2017,05,14,08,40,3.20
2017,05,14,08,41,1.60
2017,05,14,08,50,4.80
2017,05,14,08,51,4.80
2017,05,14,08,52,4.80
2017,05,14,08,53,4.80
2017,05,14,08,54,4.80
2017,05,14,08,55,4.80
2017,05,14,08,56,4.80
2017,05,14,08,57,3.20
2017,05,14,08,58,4.80
2017,05,14,08,59,3.20
2017,05,14,09,00,1.60
2017,05,14,09,01,4.80
2017,05,14,09,02,1.60
2017,05,14,09,03,4.80
2017,05,14,09,04,3.20
2017,05,14,09,05,3.20
2017,05,14,09,06,3.20
2017,05,14,09,08,1.60
2017,05,14,09,09,3.20
2017,05,14,09,10,3.20
2017,05,14,09,11,3.20
2017,05,14,09,12,3.20
2017,05,14,09,13,3.20
2017,05,14,09,14,4.80
2017,05,14,09,15,6.40
2017,05,14,09,16,4.80
2017,05,14,09,17,4.80
2017,05,14,09,18,1.60
2017,05,14,09,19,3.20
2017,05,14,09,20,4.80
2017,05,14,09,21,1.60
2017,05,14,09,23,3.20
2017,05,14,09,24,3.20
2017,05,14,09,25,4.80
2017,05,14,09,27,4.80
2017,05,14,09,28,4.80
2017,05,14,09,29,1.60
2017,05,14,09,30,1.60
2017,05,14,09,37,1.60
2017,05,14,09,41,1.60
2017,05,14,09,42,3.20
2017,05,14,09,43,3.20
2017,05,14,09,44,4.80
2017,05,14,09,45,3.20
2017,05,14,09,46,1.60
2017,05,14,09,48,4.80
2017,05,14,09,49,4.80
2017,05,14,09,50,6.40
2017,05,14,09,51,4.80
2017,05,14,09,54,1.60
2017,05,14,09,55,12.90
2017,05,14,09,56,9.60
2017,05,14,09,57,4.80
2017,05,14,09,58,6.40
2017,05,14,09,59,8.10
2017,05,14,10,00,6.40
2017,05,14,10,01,4.80
2017,05,14,10,02,4.80
2017,05,14,10,03,3.20
2017,05,14,10,04,4.80
2017,05,14,10,05,4.80
2017,05,14,10,06,8.10
2017,05,14,10,07,8.10
2017,05,14,10,08,6.40
2017,05,14,10,09,6.40
2017,05,14,10,10,6.40
2017,05,14,10,11,3.20
2017,05,14,10,12,6.40
2017,05,14,10,13,8.10
2017,05,14,10,14,6.40
2017,05,14,10,15,6.40
2017,05,14,10,16,6.40
2017,05,14,10,17,6.40
2017,05,14,10,18,8.10
2017,05,14,10,19,6.40
2017,05,14,10,20,6.40
2017,05,14,10,21,4.80
2017,05,14,10,22,6.40
2017,05,14,10,23,6.40
2017,05,14,10,24,4.80
2017,05,14,10,25,4.80
2017,05,14,10,26,6.40
2017,05,14,10,27,8.10
2017,05,14,10,28,6.40
2017,05,14,10,29,4.80
2017,05,14,10,30,8.10
2017,05,14,10,31,8.10
2017,05,14,10,32,11.30
2017,05,14,10,33,9.60
2017,05,14,10,34,9.60
2017,05,14,10,35,6.40
2017,05,14,10,36,4.80
2017,05,14,10,37,9.60
2017,05,14,10,38,12.90
2017,05,14,10,39,14.50
2017,05,14,10,40,12.90
2017,05,14,10,41,11.30
2017,05,14,10,42,11.30
2017,05,14,10,43,12.90
2017,05,14,10,44,9.60
2017,05,14,10,45,8.10
2017,05,14,10,46,8.10
2017,05,14,10,47,11.30
2017,05,14,10,48,11.30
2017,05,14,10,49,12.90
2017,05,14,10,50,8.10
2017,05,14,10,51,8.10
2017,05,14,10,52,6.40
2017,05,14,10,53,3.20
2017,05,14,10,54,1.60
2017,05,14,10,55,9.60
2017,05,14,10,56,17.70
2017,05,14,10,57,9.60
2017,05,14,10,58,11.30
2017,05,14,10,59,11.30
2017,05,14,11,00,6.40
2017,05,14,11,01,4.80
2017,05,14,11,02,11.30
2017,05,14,11,03,9.60
2017,05,14,11,04,9.60
2017,05,14,11,05,6.40
2017,05,14,11,06,4.80
2017,05,14,11,07,12.90
2017,05,14,11,08,12.90
2017,05,14,11,09,8.10
2017,05,14,11,10,8.10
2017,05,14,11,11,6.40
2017,05,14,11,12,8.10
2017,05,14,11,13,6.40
2017,05,14,11,14,6.40
2017,05,14,11,15,4.80
2017,05,14,11,16,4.80
2017,05,14,11,17,3.20
2017,05,14,11,18,3.20
2017,05,14,11,19,6.40
2017,05,14,11,20,9.60
2017,05,14,11,21,9.60
2017,05,14,11,22,11.30
2017,05,14,11,23,12.90
2017,05,14,11,24,9.60
2017,05,14,11,25,9.60
2017,05,14,11,26,8.10
2017,05,14,11,27,11.30
2017,05,14,11,28,6.40
2017,05,14,11,29,8.10
2017,05,14,11,30,11.30
2017,05,14,11,31,16.10
2017,05,14,11,32,11.30
2017,05,14,11,33,12.90
2017,05,14,11,34,14.50
2017,05,14,11,35,17.70
2017,05,14,11,36,12.90
2017,05,14,11,37,11.30
2017,05,14,11,38,11.30
2017,05,14,11,39,16.10
2017,05,14,11,40,16.10
2017,05,14,11,41,12.90
2017,05,14,11,42,11.30
2017,05,14,11,43,11.30
2017,05,14,11,44,12.90
2017,05,14,11,45,14.50
2017,05,14,11,46,17.70
2017,05,14,11,47,14.50
2017,05,14,11,48,8.10
2017,05,14,11,49,12.90
2017,05,14,11,50,11.30
2017,05,14,11,51,14.50
2017,05,14,11,52,16.10
2017,05,14,11,53,12.90
2017,05,14,11,54,12.90
2017,05,14,11,55,12.90
2017,05,14,11,56,11.30
2017,05,14,11,57,8.10
2017,05,14,11,58,12.90
2017,05,14,11,59,14.50
2017,05,14,12,00,12.90
2017,05,14,12,01,14.50
2017,05,14,12,02,11.30
2017,05,14,12,03,16.10
2017,05,14,12,04,16.10
2017,05,14,12,05,16.10
2017,05,14,12,06,12.90
2017,05,14,12,07,9.60
2017,05,14,12,08,16.10
2017,05,14,12,09,16.10
2017,05,14,12,10,11.30
2017,05,14,12,11,9.60
2017,05,14,12,12,6.40
2017,05,14,12,13,6.40
2017,05,14,12,14,9.60
2017,05,14,12,15,11.30
2017,05,14,12,16,8.10
2017,05,14,12,17,9.60
2017,05,14,12,18,11.30
2017,05,14,12,19,12.90
2017,05,14,12,20,9.60
2017,05,14,12,21,12.90
2017,05,14,12,22,11.30
2017,05,14,12,23,12.90
2017,05,14,12,24,14.50
2017,05,14,12,25,16.10
2017,05,14,12,26,16.10
2017,05,14,12,27,14.50
2017,05,14,12,28,12.90
2017,05,14,12,29,14.50
2017,05,14,12,30,11.30
2017,05,14,12,31,12.90
2017,05,14,12,32,8.10
2017,05,14,12,33,11.30
2017,05,14,12,34,12.90
2017,05,14,12,35,16.10
2017,05,14,12,36,14.50
2017,05,14,12,37,9.60
2017,05,14,12,38,9.60
2017,05,14,12,39,11.30
2017,05,14,12,40,11.30
2017,05,14,12,41,4.80
2017,05,14,12,42,9.60
2017,05,14,12,43,8.10
2017,05,14,12,44,4.80
2017,05,14,12,45,11.30
2017,05,14,12,46,14.50
2017,05,14,12,47,16.10
2017,05,14,12,48,14.50
2017,05,14,12,49,12.90
2017,05,14,12,50,14.50
2017,05,14,12,51,16.10
2017,05,14,12,52,16.10
2017,05,14,12,53,12.90
2017,05,14,12,54,17.70
2017,05,14,12,55,17.70
2017,05,14,12,56,9.60
2017,05,14,12,57,12.90
2017,05,14,12,58,9.60
2017,05,14,12,59,17.70
2017,05,14,13,00,12.90
2017,05,14,13,01,16.10
2017,05,14,13,02,16.10
2017,05,14,13,03,19.30
2017,05,14,13,04,17.70
2017,05,14,13,05,17.70
2017,05,14,13,06,12.90
2017,05,14,13,07,19.30
2017,05,14,13,08,14.50
2017,05,14,13,09,17.70
2017,05,14,13,10,22.50
2017,05,14,13,11,16.10
2017,05,14,13,12,16.10
2017,05,14,13,13,17.70
2017,05,14,13,14,17.70
2017,05,14,13,15,14.50
2017,05,14,13,16,11.30
2017,05,14,13,17,12.90
2017,05,14,13,18,11.30
2017,05,14,13,19,16.10
2017,05,14,13,20,17.70
2017,05,14,13,21,16.10
2017,05,14,13,22,16.10
2017,05,14,13,23,14.50
2017,05,14,13,24,14.50
2017,05,14,13,25,12.90
2017,05,14,13,26,12.90
2017,05,14,13,27,16.10
2017,05,14,13,28,14.50
2017,05,14,13,29,12.90
2017,05,14,13,30,16.10
2017,05,14,13,31,12.90
2017,05,14,13,32,6.40
2017,05,14,13,33,9.60
2017,05,14,13,34,6.40
2017,05,14,13,35,11.30
2017,05,14,13,36,6.40
2017,05,14,13,37,4.80
2017,05,14,13,38,9.60
2017,05,14,13,39,12.90
2017,05,14,13,40,16.10
2017,05,14,13,41,14.50
2017,05,14,13,42,16.10
2017,05,14,13,43,16.10
2017,05,14,13,44,16.10
2017,05,14,13,45,14.50
2017,05,14,13,46,19.30
2017,05,14,13,47,14.50
2017,05,14,13,48,12.90
2017,05,14,13,49,14.50
2017,05,14,13,50,12.90
2017,05,14,13,51,11.30
2017,05,14,13,52,14.50
2017,05,14,13,53,12.90
2017,05,14,13,54,16.10
2017,05,14,13,55,11.30
2017,05,14,13,56,12.90
2017,05,14,13,57,11.30
2017,05,14,13,58,11.30
2017,05,14,13,59,12.90
2017,05,14,14,00,14.50
2017,05,14,14,01,12.90
2017,05,14,14,02,11.30
2017,05,14,14,03,9.60
2017,05,14,14,04,12.90
2017,05,14,14,05,14.50
2017,05,14,14,06,14.50
2017,05,14,14,07,17.70
2017,05,14,14,08,14.50
2017,05,14,14,09,11.30
2017,05,14,14,10,6.40
2017,05,14,14,11,6.40
2017,05,14,14,12,6.40
2017,05,14,14,13,3.20
2017,05,14,14,14,6.40
2017,05,14,14,15,6.40
2017,05,14,14,16,4.80
2017,05,14,14,17,14.50
2017,05,14,14,18,6.40
2017,05,14,14,19,3.20
2017,05,14,14,20,14.50
2017,05,14,14,21,14.50
2017,05,14,14,22,11.30
2017,05,14,14,23,4.80
2017,05,14,14,24,4.80
2017,05,14,14,25,6.40
2017,05,14,14,26,3.20
2017,05,14,14,27,6.40
2017,05,14,14,28,6.40
2017,05,14,14,29,8.10
2017,05,14,14,30,8.10
2017,05,14,14,31,3.20
2017,05,14,14,32,3.20
2017,05,14,14,33,3.20
2017,05,14,14,34,1.60
2017,05,14,14,35,1.60
2017,05,14,14,36,3.20
2017,05,14,14,37,6.40
2017,05,14,14,38,4.80
2017,05,14,14,39,1.60
2017,05,14,14,40,6.40
2017,05,14,14,41,4.80
2017,05,14,14,42,3.20
2017,05,14,14,43,1.60
2017,05,14,14,44,1.60
2017,05,14,14,45,6.40
2017,05,14,14,46,4.80
2017,05,14,14,47,4.80
2017,05,14,14,48,3.20
2017,05,14,14,49,1.60
2017,05,14,14,50,1.60
2017,05,14,14,51,1.60
2017,05,14,14,52,1.60
2017,05,14,14,53,4.80
2017,05,14,14,54,1.60
2017,05,14,14,55,3.20
2017,05,14,14,56,4.80
2017,05,14,14,57,3.20
2017,05,14,14,58,3.20
2017,05,14,14,59,4.80
2017,05,14,15,00,4.80
2017,05,14,15,01,3.20
2017,05,14,15,02,1.60
2017,05,14,15,03,1.60
2017,05,14,15,04,3.20
2017,05,14,15,05,4.80
2017,05,14,15,06,4.80
2017,05,14,15,07,4.80
2017,05,14,15,08,4.80
2017,05,14,15,09,3.20
2017,05,14,15,10,4.80
2017,05,14,15,11,4.80
2017,05,14,15,12,3.20
2017,05,14,15,13,1.60
2017,05,14,15,14,3.20
2017,05,14,15,15,1.60
2017,05,14,15,19,3.20
2017,05,14,15,20,4.80
2017,05,14,15,21,3.20
2017,05,14,15,22,3.20
2017,05,14,15,23,4.80
2017,05,14,15,24,6.40
2017,05,14,15,25,8.10
2017,05,14,15,26,9.60
2017,05,14,15,27,9.60
2017,05,14,15,28,8.10
2017,05,14,15,29,4.80
2017,05,14,15,30,11.30
2017,05,14,15,31,11.30
2017,05,14,15,32,11.30
2017,05,14,15,33,6.40
2017,05,14,15,34,9.60
2017,05,14,15,35,11.30
2017,05,14,15,36,9.60
2017,05,14,15,37,6.40
2017,05,14,15,38,6.40
2017,05,14,15,39,4.80
2017,05,14,15,40,1.60
2017,05,14,15,41,12.90
2017,05,14,15,42,9.60
2017,05,14,15,43,9.60
2017,05,14,15,44,11.30
2017,05,14,15,45,9.60
2017,05,14,15,46,11.30
2017,05,14,15,47,12.90
2017,05,14,15,48,9.60
2017,05,14,15,49,9.60
2017,05,14,15,50,14.50
2017,05,14,15,51,12.90
2017,05,14,15,52,9.60
2017,05,14,15,53,9.60
2017,05,14,15,54,8.10
2017,05,14,15,55,9.60
2017,05,14,15,56,12.90
2017,05,14,15,57,9.60
2017,05,14,15,58,12.90
2017,05,14,15,59,6.40
2017,05,14,16,00,6.40
2017,05,14,16,01,1.60
2017,05,14,16,02,1.60
2017,05,14,16,03,1.60
2017,05,14,16,04,3.20
2017,05,14,16,05,9.60
2017,05,14,16,06,6.40
2017,05,14,16,07,14.50
2017,05,14,16,08,12.90
2017,05,14,16,09,11.30
2017,05,14,16,10,8.10
2017,05,14,16,11,11.30
2017,05,14,16,12,11.30
2017,05,14,16,13,11.30
2017,05,14,16,14,11.30
2017,05,14,16,15,12.90
2017,05,14,16,16,8.10
2017,05,14,16,17,8.10
2017,05,14,16,18,8.10
2017,05,14,16,19,4.80
2017,05,14,16,20,11.30
2017,05,14,16,21,11.30
2017,05,14,16,22,11.30
2017,05,14,16,23,4.80
2017,05,14,16,24,12.90
2017,05,14,16,25,14.50
2017,05,14,16,26,14.50
2017,05,14,16,27,9.60
2017,05,14,16,28,12.90
2017,05,14,16,29,12.90
2017,05,14,16,30,12.90
2017,05,14,16,31,16.10
2017,05,14,16,32,20.90
2017,05,14,16,33,11.30
2017,05,14,16,34,17.70
2017,05,14,16,35,14.50
2017,05,14,16,36,12.90
2017,05,14,16,37,16.10
2017,05,14,16,38,12.90
2017,05,14,16,39,12.90
2017,05,14,16,40,12.90
2017,05,14,16,41,14.50
2017,05,14,16,42,14.50
2017,05,14,16,43,8.10
2017,05,14,16,44,16.10
2017,05,14,16,45,17.70
2017,05,14,16,46,12.90
2017,05,14,16,47,6.40
2017,05,14,16,48,9.60
2017,05,14,16,49,16.10
2017,05,14,16,50,16.10
2017,05,14,16,51,11.30
2017,05,14,16,52,16.10
2017,05,14,16,53,11.30
2017,05,14,16,54,12.90
2017,05,14,16,55,12.90
2017,05,14,16,56,12.90
2017,05,14,16,57,17.70
2017,05,14,16,58,9.60
2017,05,14,16,59,6.40
2017,05,14,17,00,14.50
2017,05,14,17,01,20.90
2017,05,14,17,02,20.90
2017,05,14,17,03,11.30
2017,05,14,17,04,12.90
2017,05,14,17,05,9.60
2017,05,14,17,06,14.50
2017,05,14,17,07,16.10
2017,05,14,17,08,14.50
2017,05,14,17,09,14.50
2017,05,14,17,10,14.50
2017,05,14,17,11,14.50
2017,05,14,17,12,12.90
2017,05,14,17,13,14.50
2017,05,14,17,14,16.10
2017,05,14,17,15,9.60
2017,05,14,17,16,12.90
2017,05,14,17,17,12.90
2017,05,14,17,18,14.50
2017,05,14,17,19,12.90
2017,05,14,17,20,12.90
2017,05,14,17,21,12.90
2017,05,14,17,22,14.50
2017,05,14,17,23,14.50
2017,05,14,17,24,12.90
2017,05,14,17,25,12.90
2017,05,14,17,26,11.30
2017,05,14,17,27,14.50
2017,05,14,17,28,8.10
2017,05,14,17,29,11.30
2017,05,14,17,30,11.30
2017,05,14,17,31,11.30
2017,05,14,17,32,8.10
2017,05,14,17,33,11.30
2017,05,14,17,34,16.10
2017,05,14,17,35,12.90
2017,05,14,17,36,8.10
2017,05,14,17,37,6.40
2017,05,14,17,38,12.90
2017,05,14,17,39,8.10
2017,05,14,17,40,3.20
2017,05,14,17,41,12.90
2017,05,14,17,42,14.50
2017,05,14,17,43,11.30
2017,05,14,17,44,8.10
2017,05,14,17,45,14.50
2017,05,14,17,46,9.60
2017,05,14,17,47,8.10
2017,05,14,17,48,11.30
2017,05,14,17,49,9.60
2017,05,14,17,50,11.30
2017,05,14,17,51,6.40
2017,05,14,17,52,9.60
2017,05,14,17,53,8.10
2017,05,14,17,54,12.90
2017,05,14,17,55,9.60
2017,05,14,17,56,12.90
2017,05,14,17,57,12.90
2017,05,14,17,58,12.90
2017,05,14,17,59,12.90
2017,05,14,18,00,6.40
2017,05,14,18,01,12.90
2017,05,14,18,02,9.60
2017,05,14,18,03,6.40
2017,05,14,18,04,11.30
2017,05,14,18,05,6.40
2017,05,14,18,06,6.40
2017,05,14,18,07,6.40
2017,05,14,18,08,4.80
2017,05,14,18,09,9.60
2017,05,14,18,10,6.40
2017,05,14,18,11,9.60
2017,05,14,18,12,8.10
2017,05,14,18,13,6.40
2017,05,14,18,14,11.30
2017,05,14,18,15,6.40
2017,05,14,18,16,6.40
2017,05,14,18,17,6.40
2017,05,14,18,18,6.40
2017,05,14,18,19,1.60
2017,05,14,18,20,3.20
2017,05,14,18,21,9.60
2017,05,14,18,22,9.60
2017,05,14,18,23,8.10
2017,05,14,18,24,9.60
2017,05,14,18,25,9.60
2017,05,14,18,26,6.40
2017,05,14,18,27,12.90
2017,05,14,18,28,8.10
2017,05,14,18,29,9.60
2017,05,14,18,30,9.60
2017,05,14,18,31,4.80
2017,05,14,18,32,12.90
2017,05,14,18,33,9.60
2017,05,14,18,34,4.80
2017,05,14,18,35,8.10
2017,05,14,18,36,11.30
2017,05,14,18,37,12.90
2017,05,14,18,38,6.40
2017,05,14,18,39,6.40
2017,05,14,18,40,8.10
2017,05,14,18,41,8.10
2017,05,14,18,42,11.30
2017,05,14,18,43,6.40
2017,05,14,18,44,8.10
2017,05,14,18,45,6.40
2017,05,14,18,46,3.20
2017,05,14,18,47,6.40
2017,05,14,18,48,6.40
2017,05,14,18,49,9.60
2017,05,14,18,50,12.90
2017,05,14,18,51,12.90
2017,05,14,18,52,11.30
2017,05,14,18,53,11.30
2017,05,14,18,54,4.80
2017,05,14,18,55,8.10
2017,05,14,18,56,9.60
2017,05,14,18,57,9.60
2017,05,14,18,58,11.30
2017,05,14,18,59,11.30
2017,05,14,19,00,11.30
2017,05,14,19,01,11.30
2017,05,14,19,02,12.90
2017,05,14,19,03,12.90
2017,05,14,19,04,8.10
2017,05,14,19,05,6.40
2017,05,14,19,06,9.60
2017,05,14,19,07,11.30
2017,05,14,19,08,9.60
2017,05,14,19,09,9.60
2017,05,14,19,10,12.90
2017,05,14,19,11,12.90
2017,05,14,19,12,9.60
2017,05,14,19,13,8.10
2017,05,14,19,14,12.90
2017,05,14,19,15,9.60
2017,05,14,19,16,9.60
2017,05,14,19,17,9.60
2017,05,14,19,18,8.10
2017,05,14,19,19,4.80
2017,05,14,19,20,11.30
2017,05,14,19,21,8.10
2017,05,14,19,22,6.40
2017,05,14,19,23,9.60
2017,05,14,19,24,6.40
2017,05,14,19,25,6.40
2017,05,14,19,26,6.40
2017,05,14,19,27,11.30
2017,05,14,19,28,8.10
2017,05,14,19,29,9.60
2017,05,14,19,30,8.10
2017,05,14,19,31,8.10
2017,05,14,19,32,4.80
2017,05,14,19,33,9.60
2017,05,14,19,34,11.30
2017,05,14,19,35,4.80
2017,05,14,19,36,6.40
2017,05,14,19,37,4.80
2017,05,14,19,38,3.20
2017,05,14,19,39,3.20
2017,05,14,19,40,9.60
2017,05,14,19,41,11.30
2017,05,14,19,42,9.60
2017,05,14,19,43,6.40
2017,05,14,19,44,9.60
2017,05,14,19,45,6.40
2017,05,14,19,46,4.80
2017,05,14,19,47,6.40
2017,05,14,19,48,9.60
2017,05,14,19,49,4.80
2017,05,14,19,50,4.80
2017,05,14,19,51,4.80
2017,05,14,19,52,4.80
2017,05,14,19,53,6.40
2017,05,14,19,54,9.60
2017,05,14,19,55,8.10
2017,05,14,19,56,6.40
2017,05,14,19,57,6.40
2017,05,14,19,58,4.80
2017,05,14,19,59,3.20
2017,05,14,20,00,6.40
2017,05,14,20,01,4.80
2017,05,14,20,02,1.60
2017,05,14,20,03,4.80
2017,05,14,20,04,4.80
2017,05,14,20,05,3.20
2017,05,14,20,06,1.60
2017,05,14,20,10,1.60
2017,05,14,20,14,1.60
2017,05,14,20,26,1.60
2017,05,14,20,27,1.60
2017,05,14,20,31,1.60
2017,05,14,20,56,3.20
2017,05,14,20,57,3.20
2017,05,14,20,58,1.60
2017,05,14,21,03,1.60
2017,05,14,21,04,1.60
2017,05,14,21,05,1.60
2017,05,14,21,06,3.20
2017,05,14,21,07,4.80
2017,05,14,21,08,4.80
2017,05,14,21,09,3.20
2017,05,14,21,10,1.60
2017,05,14,21,11,3.20
2017,05,14,21,12,3.20
2017,05,14,21,13,3.20
2017,05,14,21,14,3.20
2017,05,14,21,15,1.60
2017,05,14,21,16,3.20
2017,05,14,21,17,1.60
2017,05,14,21,18,1.60
2017,05,14,21,19,1.60
2017,05,14,21,20,4.80
2017,05,14,21,21,3.20
2017,05,14,21,22,3.20
2017,05,14,21,23,3.20
2017,05,14,21,24,3.20
2017,05,14,21,25,3.20
2017,05,14,21,26,3.20
2017,05,14,21,27,3.20
2017,05,14,21,28,3.20
2017,05,14,21,29,4.80
2017,05,14,21,30,3.20
2017,05,14,21,31,3.20
2017,05,14,21,32,4.80
2017,05,14,21,33,3.20
2017,05,14,21,34,4.80
2017,05,14,21,35,4.80
2017,05,14,21,36,8.10
2017,05,14,21,37,6.40
2017,05,14,21,38,4.80
2017,05,14,21,39,3.20
2017,05,14,21,40,4.80
2017,05,14,21,41,6.40
2017,05,14,21,42,4.80
2017,05,14,21,43,3.20
2017,05,14,21,44,3.20
2017,05,14,21,45,1.60
2017,05,14,21,46,3.20
2017,05,14,21,47,6.40
2017,05,14,21,48,3.20
2017,05,14,21,49,3.20
2017,05,14,21,50,1.60
2017,05,14,21,51,1.60
2017,05,14,21,52,4.80
2017,05,14,21,53,3.20
2017,05,14,21,54,4.80
2017,05,14,21,55,4.80
2017,05,14,21,56,3.20
2017,05,14,21,58,4.80
2017,05,14,21,59,3.20
2017,05,14,22,00,3.20
2017,05,14,22,01,4.80
2017,05,14,22,02,3.20
2017,05,14,22,03,1.60
2017,05,14,22,05,3.20
2017,05,14,22,07,3.20
2017,05,14,22,08,4.80
2017,05,14,22,09,3.20
